Location: D�pe
(52.6057°N, 8.1808°E)
Time: 05:34:53
(UTC+00:00)

COSMO-SKYMED 1 - Pass Details

Date: 29 October 2020
Orbit: 621 x 623 km, 97.9° (Epoch: 01 December)

Event Time Altitude Azimuth Distance (km) Brightness Sun altitude
Rises 16:59:48 0° 21° (NNE) 2,918 5.7 -9.2°
Reaches altitude 10° 17:02:11 10° 31° (NNE) 2,006 4.8 -9.6°
Maximum altitude 17:06:08 33° 96° (E) 1,059 3.2 -10.2°
Drops below altitude 10° 17:10:03 10° 160° (SSE) 1,990 5.1 -10.8°
Sets 17:12:25 0° 170° (S) 2,891 6.0 -11.1°
